Year,Month,Day,Hour,Minute,Value (Times are PST for temperature in C)
2018,07,22,00,00,13.30
2018,07,22,00,01,13.30
2018,07,22,00,02,13.30
2018,07,22,00,03,13.30
2018,07,22,00,04,13.30
2018,07,22,00,05,13.40
2018,07,22,00,06,13.50
2018,07,22,00,07,13.60
2018,07,22,00,08,13.60
2018,07,22,00,09,13.60
2018,07,22,00,10,13.70
2018,07,22,00,11,13.80
2018,07,22,00,12,13.90
2018,07,22,00,13,14.00
2018,07,22,00,14,14.00
2018,07,22,00,15,13.90
2018,07,22,00,16,13.70
2018,07,22,00,17,13.50
2018,07,22,00,18,13.40
2018,07,22,00,19,13.30
2018,07,22,00,20,13.30
2018,07,22,00,21,13.20
2018,07,22,00,22,13.10
2018,07,22,00,23,13.20
2018,07,22,00,24,13.30
2018,07,22,00,25,13.20
2018,07,22,00,26,13.20
2018,07,22,00,27,13.20
2018,07,22,00,28,13.30
2018,07,22,00,29,13.50
2018,07,22,00,30,13.70
2018,07,22,00,31,13.80
2018,07,22,00,32,13.90
2018,07,22,00,33,13.90
2018,07,22,00,34,13.80
2018,07,22,00,35,13.80
2018,07,22,00,36,13.80
2018,07,22,00,37,13.80
2018,07,22,00,38,13.90
2018,07,22,00,39,14.20
2018,07,22,00,40,14.50
2018,07,22,00,41,14.80
2018,07,22,00,42,14.90
2018,07,22,00,43,14.90
2018,07,22,00,44,15.00
2018,07,22,00,45,14.90
2018,07,22,00,46,14.90
2018,07,22,00,47,14.80
2018,07,22,00,48,14.80
2018,07,22,00,49,14.70
2018,07,22,00,50,14.60
2018,07,22,00,51,14.50
2018,07,22,00,52,14.50
2018,07,22,00,53,14.70
2018,07,22,00,54,14.80
2018,07,22,00,55,14.80
2018,07,22,00,56,14.80
2018,07,22,00,57,14.80
2018,07,22,00,58,14.70
2018,07,22,00,59,14.70
2018,07,22,01,00,14.60
2018,07,22,01,01,14.60
2018,07,22,01,02,14.50
2018,07,22,01,03,14.40
2018,07,22,01,04,14.40
2018,07,22,01,05,14.40
2018,07,22,01,06,14.40
2018,07,22,01,07,14.40
2018,07,22,01,08,14.40
2018,07,22,01,09,14.40
2018,07,22,01,10,14.40
2018,07,22,01,11,14.40
2018,07,22,01,12,14.40
2018,07,22,01,13,14.40
2018,07,22,01,14,14.40
2018,07,22,01,15,14.40
2018,07,22,01,16,14.40
2018,07,22,01,17,14.30
2018,07,22,01,18,14.30
2018,07,22,01,19,14.30
2018,07,22,01,20,14.20
2018,07,22,01,21,14.20
2018,07,22,01,22,14.20
2018,07,22,01,23,14.20
2018,07,22,01,24,14.30
2018,07,22,01,25,14.30
2018,07,22,01,26,14.40
2018,07,22,01,27,14.50
2018,07,22,01,28,14.60
2018,07,22,01,29,14.60
2018,07,22,01,30,14.70
2018,07,22,01,31,14.70
2018,07,22,01,32,14.60
2018,07,22,01,33,14.60
2018,07,22,01,34,14.60
2018,07,22,01,35,14.60
2018,07,22,01,36,14.60
2018,07,22,01,37,14.60
2018,07,22,01,38,14.50
2018,07,22,01,39,14.50
2018,07,22,01,40,14.40
2018,07,22,01,41,14.40
2018,07,22,01,42,14.40
2018,07,22,01,43,14.40
2018,07,22,01,44,14.40
2018,07,22,01,45,14.40
2018,07,22,01,46,14.40
2018,07,22,01,47,14.40
2018,07,22,01,48,14.50
2018,07,22,01,49,14.50
2018,07,22,01,50,14.50
2018,07,22,01,51,14.50
2018,07,22,01,52,14.40
2018,07,22,01,53,14.30
2018,07,22,01,54,14.30
2018,07,22,01,55,14.20
2018,07,22,01,56,14.20
2018,07,22,01,57,14.10
2018,07,22,01,58,14.10
2018,07,22,01,59,14.00
2018,07,22,02,00,13.90
2018,07,22,02,01,13.90
2018,07,22,02,02,13.80
2018,07,22,02,03,13.80
2018,07,22,02,04,13.80
2018,07,22,02,05,13.70
2018,07,22,02,06,13.70
2018,07,22,02,07,13.70
2018,07,22,02,08,13.70
2018,07,22,02,09,13.70
2018,07,22,02,10,13.70
2018,07,22,02,11,13.70
2018,07,22,02,12,13.80
2018,07,22,02,13,13.80
2018,07,22,02,14,13.80
2018,07,22,02,15,13.90
2018,07,22,02,16,13.90
2018,07,22,02,17,14.00
2018,07,22,02,18,14.00
2018,07,22,02,19,14.00
2018,07,22,02,20,14.00
2018,07,22,02,21,14.00
2018,07,22,02,22,14.00
2018,07,22,02,23,14.00
2018,07,22,02,24,14.10
2018,07,22,02,25,14.20
2018,07,22,02,26,14.30
2018,07,22,02,27,14.30
2018,07,22,02,28,14.40
2018,07,22,02,29,14.50
2018,07,22,02,30,14.60
2018,07,22,02,31,14.70
2018,07,22,02,32,14.90
2018,07,22,02,33,15.00
2018,07,22,02,34,15.20
2018,07,22,02,35,15.30
2018,07,22,02,36,15.40
2018,07,22,02,37,15.40
2018,07,22,02,38,15.30
2018,07,22,02,39,15.20
2018,07,22,02,40,15.10
2018,07,22,02,41,15.00
2018,07,22,02,42,14.90
2018,07,22,02,43,14.80
2018,07,22,02,44,14.80
2018,07,22,02,45,14.70
2018,07,22,02,46,14.70
2018,07,22,02,47,14.70
2018,07,22,02,48,14.60
2018,07,22,02,49,14.60
2018,07,22,02,50,14.50
2018,07,22,02,51,14.40
2018,07,22,02,52,14.30
2018,07,22,02,53,14.20
2018,07,22,02,54,14.10
2018,07,22,02,55,13.90
2018,07,22,02,56,13.80
2018,07,22,02,57,13.70
2018,07,22,02,58,13.70
2018,07,22,02,59,13.70
2018,07,22,03,00,13.70
2018,07,22,03,01,13.70
2018,07,22,03,02,13.70
2018,07,22,03,03,13.80
2018,07,22,03,06,13.90
2018,07,22,03,07,13.90
2018,07,22,03,08,13.90
2018,07,22,03,09,14.00
2018,07,22,03,10,14.00
2018,07,22,03,11,14.10
2018,07,22,03,12,14.10
2018,07,22,03,13,14.20
2018,07,22,03,14,14.20
2018,07,22,03,15,14.20
2018,07,22,03,16,14.20
2018,07,22,03,17,14.20
2018,07,22,03,18,14.20
2018,07,22,03,19,14.20
2018,07,22,03,20,14.20
2018,07,22,03,21,14.20
2018,07,22,03,22,14.20
2018,07,22,03,23,14.20
2018,07,22,03,24,14.20
2018,07,22,03,25,14.20
2018,07,22,03,26,14.20
2018,07,22,03,27,14.20
2018,07,22,03,28,14.20
2018,07,22,03,29,14.20
2018,07,22,03,30,14.20
2018,07,22,03,31,14.20
2018,07,22,03,32,14.20
2018,07,22,03,33,14.20
2018,07,22,03,34,14.20
2018,07,22,03,35,14.20
2018,07,22,03,36,14.20
2018,07,22,03,37,14.20
2018,07,22,03,38,14.20
2018,07,22,03,39,14.20
2018,07,22,03,40,14.20
2018,07,22,03,41,14.20
2018,07,22,03,42,14.20
2018,07,22,03,43,14.20
2018,07,22,03,44,14.20
2018,07,22,03,45,14.20
2018,07,22,03,46,14.30
2018,07,22,03,47,14.30
2018,07,22,03,48,14.30
2018,07,22,03,49,14.30
2018,07,22,03,50,14.30
2018,07,22,03,51,14.30
2018,07,22,03,52,14.30
2018,07,22,03,53,14.40
2018,07,22,03,54,14.40
2018,07,22,03,55,14.40
2018,07,22,03,56,14.40
2018,07,22,03,57,14.50
2018,07,22,03,58,14.50
2018,07,22,03,59,14.50
2018,07,22,04,00,14.50
2018,07,22,04,01,14.50
2018,07,22,04,02,14.50
2018,07,22,04,03,14.40
2018,07,22,04,04,14.40
2018,07,22,04,05,14.40
2018,07,22,04,06,14.30
2018,07,22,04,07,14.30
2018,07,22,04,08,14.30
2018,07,22,04,09,14.30
2018,07,22,04,10,14.30
2018,07,22,04,11,14.30
2018,07,22,04,12,14.40
2018,07,22,04,13,14.40
2018,07,22,04,14,14.40
2018,07,22,04,15,14.40
2018,07,22,04,16,14.40
2018,07,22,04,17,14.40
2018,07,22,04,18,14.30
2018,07,22,04,19,14.30
2018,07,22,04,20,14.30
2018,07,22,04,21,14.30
2018,07,22,04,22,14.30
2018,07,22,04,23,14.30
2018,07,22,04,24,14.30
2018,07,22,04,25,14.40
2018,07,22,04,26,14.40
2018,07,22,04,27,14.40
2018,07,22,04,28,14.50
2018,07,22,04,29,14.50
2018,07,22,04,30,14.60
2018,07,22,04,31,14.60
2018,07,22,04,32,14.60
2018,07,22,04,33,14.60
2018,07,22,04,34,14.70
2018,07,22,04,35,14.70
2018,07,22,04,36,14.70
2018,07,22,04,37,14.80
2018,07,22,04,38,14.80
2018,07,22,04,39,14.80
2018,07,22,04,40,14.80
2018,07,22,04,41,14.90
2018,07,22,04,42,14.90
2018,07,22,04,43,14.90
2018,07,22,04,44,14.90
2018,07,22,04,45,14.90
2018,07,22,04,46,14.90
2018,07,22,04,47,14.90
2018,07,22,04,48,14.90
2018,07,22,04,49,14.90
2018,07,22,04,50,14.90
2018,07,22,04,51,14.90
2018,07,22,04,52,14.80
2018,07,22,04,53,14.80
2018,07,22,04,54,14.70
2018,07,22,04,55,14.60
2018,07,22,04,56,14.60
2018,07,22,04,57,14.50
2018,07,22,04,58,14.50
2018,07,22,04,59,14.40
2018,07,22,05,00,14.40
2018,07,22,05,01,14.40
2018,07,22,05,02,14.50
2018,07,22,05,03,14.50
2018,07,22,05,04,14.60
2018,07,22,05,05,14.60
2018,07,22,05,06,14.70
2018,07,22,05,07,14.70
2018,07,22,05,08,14.80
2018,07,22,05,09,14.80
2018,07,22,05,10,14.90
2018,07,22,05,11,14.90
2018,07,22,05,12,15.00
2018,07,22,05,13,15.10
2018,07,22,05,14,15.10
2018,07,22,05,15,15.20
2018,07,22,05,16,15.20
2018,07,22,05,17,15.20
2018,07,22,05,18,15.20
2018,07,22,05,19,15.20
2018,07,22,05,20,15.10
2018,07,22,05,21,15.10
2018,07,22,05,22,15.10
2018,07,22,05,23,15.00
2018,07,22,05,24,14.70
2018,07,22,05,25,14.50
2018,07,22,05,26,14.30
2018,07,22,05,27,14.20
2018,07,22,05,28,14.20
2018,07,22,05,29,14.10
2018,07,22,05,30,14.00
2018,07,22,05,31,14.00
2018,07,22,05,32,13.90
2018,07,22,05,33,13.90
2018,07,22,05,34,13.70
2018,07,22,05,35,13.50
2018,07,22,05,36,13.40
2018,07,22,05,37,13.20
2018,07,22,05,38,13.20
2018,07,22,05,39,13.10
2018,07,22,05,40,13.00
2018,07,22,05,41,13.00
2018,07,22,05,42,13.00
2018,07,22,05,43,13.00
2018,07,22,05,44,12.90
2018,07,22,05,45,12.90
2018,07,22,05,46,12.90
2018,07,22,05,47,12.90
2018,07,22,05,48,12.90
2018,07,22,05,49,13.00
2018,07,22,05,50,13.10
2018,07,22,05,51,13.10
2018,07,22,05,52,13.20
2018,07,22,05,53,13.10
2018,07,22,05,54,13.00
2018,07,22,05,55,12.90
2018,07,22,05,56,12.90
2018,07,22,05,57,13.00
2018,07,22,05,58,13.00
2018,07,22,05,59,13.00
2018,07,22,06,00,13.00
2018,07,22,06,01,12.90
2018,07,22,06,02,12.90
2018,07,22,06,03,12.90
2018,07,22,06,04,12.80
2018,07,22,06,05,12.70
2018,07,22,06,06,12.70
2018,07,22,06,07,12.60
2018,07,22,06,08,12.60
2018,07,22,06,09,12.60
2018,07,22,06,10,12.70
2018,07,22,06,11,12.70
2018,07,22,06,12,12.80
2018,07,22,06,13,12.80
2018,07,22,06,14,12.70
2018,07,22,06,15,12.70
2018,07,22,06,16,12.60
2018,07,22,06,17,12.50
2018,07,22,06,18,12.50
2018,07,22,06,19,12.40
2018,07,22,06,20,12.30
2018,07,22,06,21,12.30
2018,07,22,06,22,12.40
2018,07,22,06,23,12.40
2018,07,22,06,24,12.40
2018,07,22,06,25,12.40
2018,07,22,06,26,12.40
2018,07,22,06,27,12.40
2018,07,22,06,28,12.50
2018,07,22,06,29,12.60
2018,07,22,06,30,12.60
2018,07,22,06,31,12.70
2018,07,22,06,32,12.70
2018,07,22,06,33,12.80
2018,07,22,06,34,12.80
2018,07,22,06,35,12.80
2018,07,22,06,36,12.80
2018,07,22,06,37,12.90
2018,07,22,06,38,12.90
2018,07,22,06,39,13.00
2018,07,22,06,40,13.10
2018,07,22,06,41,13.10
2018,07,22,06,42,13.10
2018,07,22,06,43,13.20
2018,07,22,06,44,13.20
2018,07,22,06,45,13.30
2018,07,22,06,46,13.30
2018,07,22,06,47,13.30
2018,07,22,06,48,13.30
2018,07,22,06,49,13.30
2018,07,22,06,50,13.30
2018,07,22,06,51,13.30
2018,07,22,06,52,13.30
2018,07,22,06,53,13.30
2018,07,22,06,54,13.30
2018,07,22,06,55,13.40
2018,07,22,06,56,13.50
2018,07,22,06,57,13.50
2018,07,22,06,58,13.60
2018,07,22,06,59,13.70
2018,07,22,07,00,13.80
2018,07,22,07,01,13.90
2018,07,22,07,02,14.00
2018,07,22,07,03,14.10
2018,07,22,07,04,14.20
2018,07,22,07,05,14.30
2018,07,22,07,06,14.40
2018,07,22,07,07,14.60
2018,07,22,07,08,14.70
2018,07,22,07,09,14.80
2018,07,22,07,10,14.80
2018,07,22,07,11,14.90
2018,07,22,07,12,15.00
2018,07,22,07,13,15.10
2018,07,22,07,14,15.10
2018,07,22,07,15,15.20
2018,07,22,07,16,15.20
2018,07,22,07,17,15.20
2018,07,22,07,18,15.20
2018,07,22,07,19,15.20
2018,07,22,07,20,15.20
2018,07,22,07,21,15.20
2018,07,22,07,22,15.20
2018,07,22,07,23,15.30
2018,07,22,07,24,15.30
2018,07,22,07,25,15.30
2018,07,22,07,26,15.40
2018,07,22,07,27,15.40
2018,07,22,07,28,15.50
2018,07,22,07,29,15.60
2018,07,22,07,30,15.70
2018,07,22,07,31,15.80
2018,07,22,07,32,15.90
2018,07,22,07,33,16.00
2018,07,22,07,34,16.10
2018,07,22,07,35,16.30
2018,07,22,07,36,16.40
2018,07,22,07,37,16.50
2018,07,22,07,38,16.60
2018,07,22,07,39,16.70
2018,07,22,07,40,16.90
2018,07,22,07,41,17.00
2018,07,22,07,42,17.00
2018,07,22,07,43,17.00
2018,07,22,07,44,17.10
2018,07,22,07,45,17.10
2018,07,22,07,46,17.00
2018,07,22,07,47,17.00
2018,07,22,07,48,16.90
2018,07,22,07,49,16.90
2018,07,22,07,50,16.90
2018,07,22,07,51,16.80
2018,07,22,07,52,16.80
2018,07,22,07,53,16.80
2018,07,22,07,54,16.80
2018,07,22,07,55,16.80
2018,07,22,07,56,16.70
2018,07,22,07,57,16.70
2018,07,22,07,58,16.80
2018,07,22,07,59,16.80
2018,07,22,08,00,16.80
2018,07,22,08,01,16.80
2018,07,22,08,02,16.70
2018,07,22,08,03,16.70
2018,07,22,08,04,16.70
2018,07,22,08,05,16.70
2018,07,22,08,06,16.60
2018,07,22,08,07,16.60
2018,07,22,08,08,16.60
2018,07,22,08,09,16.50
2018,07,22,08,10,16.50
2018,07,22,08,11,16.50
2018,07,22,08,12,16.50
2018,07,22,08,13,16.50
2018,07,22,08,14,16.60
2018,07,22,08,15,16.70
2018,07,22,08,16,16.70
2018,07,22,08,17,16.80
2018,07,22,08,18,16.80
2018,07,22,08,19,16.90
2018,07,22,08,20,16.90
2018,07,22,08,21,17.00
2018,07,22,08,22,17.00
2018,07,22,08,23,17.10
2018,07,22,08,24,17.10
2018,07,22,08,25,17.10
2018,07,22,08,26,17.10
2018,07,22,08,27,17.00
2018,07,22,08,28,17.00
2018,07,22,08,29,17.00
2018,07,22,08,30,17.00
2018,07,22,08,31,17.10
2018,07,22,08,32,17.10
2018,07,22,08,33,17.20
2018,07,22,08,34,17.20
2018,07,22,08,35,17.30
2018,07,22,08,36,17.40
2018,07,22,08,37,17.40
2018,07,22,08,38,17.50
2018,07,22,08,39,17.50
2018,07,22,08,40,17.60
2018,07,22,08,41,17.60
2018,07,22,08,42,17.60
2018,07,22,08,43,17.60
2018,07,22,08,44,17.70
2018,07,22,08,45,17.70
2018,07,22,08,46,17.80
2018,07,22,08,47,17.80
2018,07,22,08,48,17.80
2018,07,22,08,49,17.80
2018,07,22,08,50,17.70
2018,07,22,08,51,17.50
2018,07,22,08,52,17.50
2018,07,22,08,53,17.40
2018,07,22,08,54,17.30
2018,07,22,08,55,17.20
2018,07,22,08,56,17.10
2018,07,22,08,57,17.00
2018,07,22,08,58,16.90
2018,07,22,08,59,16.80
2018,07,22,09,00,16.80
2018,07,22,09,01,16.70
2018,07,22,09,02,16.60
2018,07,22,09,03,16.50
2018,07,22,09,04,16.40
2018,07,22,09,05,16.40
2018,07,22,09,06,16.20
2018,07,22,09,07,16.10
2018,07,22,09,08,16.10
2018,07,22,09,09,16.00
2018,07,22,09,10,16.00
2018,07,22,09,11,16.00
2018,07,22,09,12,16.00
2018,07,22,09,13,16.10
2018,07,22,09,14,16.10
2018,07,22,09,15,16.20
2018,07,22,09,16,16.30
2018,07,22,09,17,16.40
2018,07,22,09,18,16.40
2018,07,22,09,19,16.40
2018,07,22,09,20,16.50
2018,07,22,09,21,16.50
2018,07,22,09,22,16.50
2018,07,22,09,23,16.50
2018,07,22,09,24,16.40
2018,07,22,09,25,16.40
2018,07,22,09,26,16.40
2018,07,22,09,27,16.40
2018,07,22,09,28,16.40
2018,07,22,09,29,16.40
2018,07,22,09,30,16.50
2018,07,22,09,31,16.50
2018,07,22,09,32,16.60
2018,07,22,09,33,16.70
2018,07,22,09,34,16.80
2018,07,22,09,35,16.90
2018,07,22,09,36,17.00
2018,07,22,09,37,17.10
2018,07,22,09,38,17.30
2018,07,22,09,39,17.30
2018,07,22,09,40,17.40
2018,07,22,09,41,17.50
2018,07,22,09,42,17.60
2018,07,22,09,43,17.60
2018,07,22,09,44,17.70
2018,07,22,09,45,17.60
2018,07,22,09,46,17.50
2018,07,22,09,47,17.40
2018,07,22,09,48,17.40
2018,07,22,09,49,17.40
2018,07,22,09,50,17.50
2018,07,22,09,51,17.50
2018,07,22,09,52,17.60
2018,07,22,09,53,17.70
2018,07,22,09,54,17.80
2018,07,22,09,55,17.90
2018,07,22,09,56,17.90
2018,07,22,09,57,18.00
2018,07,22,09,58,18.00
2018,07,22,09,59,18.00
2018,07,22,10,00,18.10
2018,07,22,10,01,18.10
2018,07,22,10,02,18.10
2018,07,22,10,03,18.10
2018,07,22,10,04,18.20
2018,07,22,10,05,18.20
2018,07,22,10,06,18.30
2018,07,22,10,07,18.30
2018,07,22,10,08,18.30
2018,07,22,10,09,18.30
2018,07,22,10,10,18.30
2018,07,22,10,11,18.30
2018,07,22,10,12,18.40
2018,07,22,10,13,18.40
2018,07,22,10,14,18.30
2018,07,22,10,15,18.30
2018,07,22,10,16,18.20
2018,07,22,10,17,18.20
2018,07,22,10,18,18.10
2018,07,22,10,19,18.00
2018,07,22,10,20,17.80
2018,07,22,10,21,17.70
2018,07,22,10,22,17.70
2018,07,22,10,23,17.60
2018,07,22,10,24,17.60
2018,07,22,10,25,17.50
2018,07,22,10,26,17.40
2018,07,22,10,27,17.50
2018,07,22,10,28,17.50
2018,07,22,10,29,17.60
2018,07,22,10,30,17.60
2018,07,22,10,31,17.60
2018,07,22,10,32,17.60
2018,07,22,10,33,17.60
2018,07,22,10,34,17.70
2018,07,22,10,35,17.70
2018,07,22,10,36,17.80
2018,07,22,10,37,17.90
2018,07,22,10,38,17.90
2018,07,22,10,39,17.90
2018,07,22,10,40,17.90
2018,07,22,10,41,17.90
2018,07,22,10,42,17.90
2018,07,22,10,43,17.90
2018,07,22,10,44,17.90
2018,07,22,10,45,18.00
2018,07,22,10,46,17.90
2018,07,22,10,47,17.90
2018,07,22,10,48,17.90
2018,07,22,10,49,17.90
2018,07,22,10,50,17.90
2018,07,22,10,51,18.00
2018,07,22,10,52,18.00
2018,07,22,10,53,18.00
2018,07,22,10,54,18.00
2018,07,22,10,55,18.00
2018,07,22,10,56,18.10
2018,07,22,10,57,18.20
2018,07,22,10,58,18.20
2018,07,22,10,59,18.30
2018,07,22,11,00,18.40
2018,07,22,11,01,18.50
2018,07,22,11,02,18.50
2018,07,22,11,03,18.60
2018,07,22,11,04,18.60
2018,07,22,11,05,18.70
2018,07,22,11,06,18.70
2018,07,22,11,07,18.70
2018,07,22,11,08,18.70
2018,07,22,11,09,18.70
2018,07,22,11,10,18.80
2018,07,22,11,11,18.80
2018,07,22,11,12,18.70
2018,07,22,11,13,18.70
2018,07,22,11,14,18.70
2018,07,22,11,15,18.60
2018,07,22,11,16,18.60
2018,07,22,11,17,18.60
2018,07,22,11,18,18.60
2018,07,22,11,19,18.70
2018,07,22,11,20,18.70
2018,07,22,11,21,18.80
2018,07,22,11,22,18.80
2018,07,22,11,23,18.80
2018,07,22,11,24,18.90
2018,07,22,11,25,18.90
2018,07,22,11,26,18.90
2018,07,22,11,27,19.00
2018,07,22,11,28,19.10
2018,07,22,11,29,19.10
2018,07,22,11,30,19.10
2018,07,22,11,31,19.10
2018,07,22,11,32,19.10
2018,07,22,11,33,19.10
2018,07,22,11,34,19.10
2018,07,22,11,35,19.10
2018,07,22,11,36,19.10
2018,07,22,11,37,19.10
2018,07,22,11,38,19.20
2018,07,22,11,39,19.20
2018,07,22,11,40,19.20
2018,07,22,11,41,19.20
2018,07,22,11,42,19.20
2018,07,22,11,43,19.20
2018,07,22,11,44,19.20
2018,07,22,11,45,19.20
2018,07,22,11,46,19.20
2018,07,22,11,47,19.20
2018,07,22,11,48,19.20
2018,07,22,11,49,19.30
2018,07,22,11,50,19.30
2018,07,22,11,51,19.30
2018,07,22,11,52,19.30
2018,07,22,11,53,19.30
2018,07,22,11,54,19.30
2018,07,22,11,55,19.30
2018,07,22,11,56,19.30
2018,07,22,11,57,19.30
2018,07,22,11,58,19.30
2018,07,22,11,59,19.30
2018,07,22,12,00,19.30
2018,07,22,12,01,19.30
2018,07,22,12,02,19.30
2018,07,22,12,03,19.40
2018,07,22,12,04,19.40
2018,07,22,12,05,19.50
2018,07,22,12,06,19.50
2018,07,22,12,07,19.50
2018,07,22,12,08,19.60
2018,07,22,12,09,19.60
2018,07,22,12,10,19.60
2018,07,22,12,11,19.60
2018,07,22,12,12,19.60
2018,07,22,12,13,19.60
2018,07,22,12,14,19.70
2018,07,22,12,15,19.70
2018,07,22,12,16,19.70
2018,07,22,12,17,19.70
2018,07,22,12,18,19.80
2018,07,22,12,19,19.80
2018,07,22,12,20,19.80
2018,07,22,12,21,19.80
2018,07,22,12,22,19.80
2018,07,22,12,23,19.80
2018,07,22,12,24,19.80
2018,07,22,12,25,19.80
2018,07,22,12,26,19.80
2018,07,22,12,27,19.80
2018,07,22,12,28,19.80
2018,07,22,12,29,19.90
2018,07,22,12,30,19.90
2018,07,22,12,31,19.90
2018,07,22,12,32,19.90
2018,07,22,12,33,19.90
2018,07,22,12,34,19.90
2018,07,22,12,35,19.90
2018,07,22,12,36,20.00
2018,07,22,12,37,20.00
2018,07,22,12,38,20.10
2018,07,22,12,39,20.10
2018,07,22,12,40,20.10
2018,07,22,12,41,20.20
2018,07,22,12,42,20.20
2018,07,22,12,43,20.20
2018,07,22,12,44,20.20
2018,07,22,12,45,20.30
2018,07,22,12,46,20.30
2018,07,22,12,47,20.30
2018,07,22,12,48,20.30
2018,07,22,12,49,20.10
2018,07,22,12,50,19.90
2018,07,22,12,51,19.70
2018,07,22,12,52,19.50
2018,07,22,12,53,19.30
2018,07,22,12,54,19.10
2018,07,22,12,55,18.90
2018,07,22,12,56,18.70
2018,07,22,12,57,18.50
2018,07,22,12,58,18.40
2018,07,22,12,59,18.30
2018,07,22,13,00,18.20
2018,07,22,13,01,18.20
2018,07,22,13,02,18.30
2018,07,22,13,03,18.30
2018,07,22,13,04,18.30
2018,07,22,13,05,18.40
2018,07,22,13,06,18.50
2018,07,22,13,07,18.60
2018,07,22,13,08,18.60
2018,07,22,13,09,18.70
2018,07,22,13,10,18.70
2018,07,22,13,11,18.80
2018,07,22,13,12,18.90
2018,07,22,13,13,18.90
2018,07,22,13,14,19.00
2018,07,22,13,15,19.00
2018,07,22,13,16,18.90
2018,07,22,13,17,18.90
2018,07,22,13,18,18.80
2018,07,22,13,19,18.70
2018,07,22,13,20,18.60
2018,07,22,13,21,18.60
2018,07,22,13,22,18.50
2018,07,22,13,23,18.50
2018,07,22,13,24,18.50
2018,07,22,13,25,18.40
2018,07,22,13,26,18.50
2018,07,22,13,27,18.50
2018,07,22,13,28,18.60
2018,07,22,13,29,18.70
2018,07,22,13,30,18.80
2018,07,22,13,31,18.90
2018,07,22,13,32,19.00
2018,07,22,13,33,19.00
2018,07,22,13,34,18.80
2018,07,22,13,35,18.50
2018,07,22,13,36,18.30
2018,07,22,13,37,18.20
2018,07,22,13,38,18.00
2018,07,22,13,39,18.00
2018,07,22,13,40,18.00
2018,07,22,13,41,17.90
2018,07,22,13,42,17.90
2018,07,22,13,43,17.90
2018,07,22,13,44,17.80
2018,07,22,13,45,17.70
2018,07,22,13,46,17.70
2018,07,22,13,47,17.70
2018,07,22,13,48,17.70
2018,07,22,13,49,17.70
2018,07,22,13,50,17.70
2018,07,22,13,51,17.80
2018,07,22,13,52,17.80
2018,07,22,13,53,17.90
2018,07,22,13,54,18.00
2018,07,22,13,55,18.10
2018,07,22,13,56,18.20
2018,07,22,13,57,18.30
2018,07,22,13,58,18.40
2018,07,22,13,59,18.50
2018,07,22,14,00,18.60
2018,07,22,14,01,18.70
2018,07,22,14,02,18.90
2018,07,22,14,03,19.00
2018,07,22,14,04,19.20
2018,07,22,14,05,19.30
2018,07,22,14,06,19.40
2018,07,22,14,07,19.40
2018,07,22,14,08,19.50
2018,07,22,14,09,19.50
2018,07,22,14,10,19.50
2018,07,22,14,11,19.60
2018,07,22,14,12,19.60
2018,07,22,14,13,19.60
2018,07,22,14,14,19.70
2018,07,22,14,15,19.70
2018,07,22,14,16,19.70
2018,07,22,14,17,19.70
2018,07,22,14,18,19.70
2018,07,22,14,19,19.70
2018,07,22,14,20,19.70
2018,07,22,14,21,19.60
2018,07,22,14,22,19.50
2018,07,22,14,23,19.50
2018,07,22,14,24,19.40
2018,07,22,14,25,19.40
2018,07,22,14,26,19.40
2018,07,22,14,27,19.40
2018,07,22,14,28,19.30
2018,07,22,14,29,19.30
2018,07,22,14,30,19.30
2018,07,22,14,31,19.30
2018,07,22,14,32,19.40
2018,07,22,14,33,19.40
2018,07,22,14,34,19.40
2018,07,22,14,35,19.40
2018,07,22,14,36,19.40
2018,07,22,14,37,19.50
2018,07,22,14,38,19.50
2018,07,22,14,39,19.50
2018,07,22,14,40,19.50
2018,07,22,14,41,19.50
2018,07,22,14,42,19.50
2018,07,22,14,43,19.40
2018,07,22,14,44,19.40
2018,07,22,14,45,19.40
2018,07,22,14,46,19.30
2018,07,22,14,47,19.20
2018,07,22,14,48,19.20
2018,07,22,14,49,19.10
2018,07,22,14,50,19.10
2018,07,22,14,51,19.10
2018,07,22,14,52,19.10
2018,07,22,14,53,19.20
2018,07,22,14,54,19.20
2018,07,22,14,55,19.30
2018,07,22,14,56,19.30
2018,07,22,14,57,19.30
2018,07,22,14,58,19.40
2018,07,22,14,59,19.40
2018,07,22,15,00,19.40
2018,07,22,15,01,19.50
2018,07,22,15,02,19.60
2018,07,22,15,03,19.60
2018,07,22,15,04,19.70
2018,07,22,15,05,19.70
2018,07,22,15,06,19.70
2018,07,22,15,07,19.80
2018,07,22,15,08,19.80
2018,07,22,15,09,19.80
2018,07,22,15,10,19.80
2018,07,22,15,11,19.80
2018,07,22,15,12,19.80
2018,07,22,15,13,19.80
2018,07,22,15,14,19.70
2018,07,22,15,15,19.70
2018,07,22,15,16,19.60
2018,07,22,15,17,19.60
2018,07,22,15,18,19.40
2018,07,22,15,19,18.90
2018,07,22,15,20,18.60
2018,07,22,15,21,18.40
2018,07,22,15,22,18.40
2018,07,22,15,23,18.50
2018,07,22,15,24,18.40
2018,07,22,15,25,18.30
2018,07,22,15,26,18.40
2018,07,22,15,27,18.60
2018,07,22,15,28,18.70
2018,07,22,15,29,18.70
2018,07,22,15,30,18.60
2018,07,22,15,31,18.60
2018,07,22,15,32,18.60
2018,07,22,15,33,18.70
2018,07,22,15,34,18.70
2018,07,22,15,35,18.70
2018,07,22,15,36,18.70
2018,07,22,15,37,18.80
2018,07,22,15,38,18.70
2018,07,22,15,39,18.70
2018,07,22,15,40,18.80
2018,07,22,15,41,18.90
2018,07,22,15,42,19.00
2018,07,22,15,43,19.20
2018,07,22,15,44,19.30
2018,07,22,15,45,19.30
2018,07,22,15,46,19.40
2018,07,22,15,47,19.50
2018,07,22,15,48,19.60
2018,07,22,15,49,19.60
2018,07,22,15,50,19.70
2018,07,22,15,51,19.80
2018,07,22,15,52,19.90
2018,07,22,15,53,20.00
2018,07,22,15,54,20.00
2018,07,22,15,55,20.10
2018,07,22,15,56,20.10
2018,07,22,15,57,20.10
2018,07,22,15,58,20.10
2018,07,22,15,59,20.10
2018,07,22,16,00,20.00
2018,07,22,16,01,19.90
2018,07,22,16,02,19.80
2018,07,22,16,03,19.80
2018,07,22,16,04,19.80
2018,07,22,16,05,19.80
2018,07,22,16,06,19.80
2018,07,22,16,07,19.90
2018,07,22,16,08,19.90
2018,07,22,16,09,19.80
2018,07,22,16,10,19.90
2018,07,22,16,11,19.90
2018,07,22,16,12,19.80
2018,07,22,16,13,19.80
2018,07,22,16,14,19.90
2018,07,22,16,15,20.00
2018,07,22,16,16,20.00
2018,07,22,16,17,20.10
2018,07,22,16,18,20.20
2018,07,22,16,19,20.30
2018,07,22,16,20,20.40
2018,07,22,16,21,20.50
2018,07,22,16,22,20.70
2018,07,22,16,23,20.80
2018,07,22,16,24,20.80
2018,07,22,16,25,20.80
2018,07,22,16,26,20.70
2018,07,22,16,27,20.70
2018,07,22,16,28,20.60
2018,07,22,16,29,20.50
2018,07,22,16,30,20.50
2018,07,22,16,31,20.30
2018,07,22,16,32,20.10
2018,07,22,16,33,20.00
2018,07,22,16,34,19.90
2018,07,22,16,35,19.80
2018,07,22,16,36,19.60
2018,07,22,16,37,19.40
2018,07,22,16,38,19.10
2018,07,22,16,39,18.90
2018,07,22,16,40,18.80
2018,07,22,16,41,18.60
2018,07,22,16,42,18.50
2018,07,22,16,43,18.40
2018,07,22,16,44,18.30
2018,07,22,16,45,18.20
2018,07,22,16,46,18.00
2018,07,22,16,47,17.90
2018,07,22,16,48,17.90
2018,07,22,16,49,17.90
2018,07,22,16,50,17.80
2018,07,22,16,51,17.70
2018,07,22,16,52,17.70
2018,07,22,16,53,17.80
2018,07,22,16,54,17.80
2018,07,22,16,55,17.80
2018,07,22,16,56,17.80
2018,07,22,16,57,17.80
2018,07,22,16,58,17.80
2018,07,22,16,59,17.80
2018,07,22,17,00,17.70
2018,07,22,17,01,17.70
2018,07,22,17,02,17.70
2018,07,22,17,03,17.60
2018,07,22,17,04,17.70
2018,07,22,17,05,17.70
2018,07,22,17,06,17.70
2018,07,22,17,07,17.60
2018,07,22,17,08,17.60
2018,07,22,17,09,17.60
2018,07,22,17,10,17.40
2018,07,22,17,11,17.30
2018,07,22,17,12,17.30
2018,07,22,17,13,17.20
2018,07,22,17,14,17.20
2018,07,22,17,15,17.20
2018,07,22,17,16,17.20
2018,07,22,17,17,17.10
2018,07,22,17,18,17.10
2018,07,22,17,19,17.10
2018,07,22,17,20,17.00
2018,07,22,17,21,17.00